CAPE
0 2 1 1 1 2 2 2 0 0 0 0 0 0 0 0 0 0 0 0 0 0 0 0 0 0 0 0 0 0 0 3 0 0 0 0 0 0 0 0 6 0 0 0 0 0 0 8 52 210 10 0 0 35
2 0 1 2 1 1 2 1 1 0 0 0 0 0 0 0 0 0 0 0 0 0 0 0 0 0 0 0 0 0 0 0 0 0 0 0 46 0 16 52 0 57 36 37 75 24 0 0 0 0 0 0 0 8
0 1 0 2 1 1 1 1 1 0 0 0 0 0 0 0 0 0 0 0 0 0 0 0 0 0 0 0 0 0 0 0 0 0 0 0 19 3 20 1 0 15 0 0 0 0 0 0 0 0 0 0 0 0
0 1 0 0 1 1 1 1 1 0 0 0 0 0 0 0 0 0 0 0 0 0 0 0 0 0 0 0 0 0 0 0 0 0 0 0 0 3 33 13 4 1 0 0 0 0 0 0 0 0 0 0 0 0
0 0 1 0 0 1 1 1 1 0 0 0 0 0 0 0 0 0 0 0 0 0 0 0 0 0 0 0 0 0 0 0 0 0 0 0 0 27 4 24 35 9 0 0 0 0 0 0 0 0 0 0 0 0
1 0 0 0 0 1 1 1 1 0 0 0 0 0 0 0 0 0 0 0 0 0 0 0 0 0 0 0 0 0 0 0 0 0 0 0 0 0 0 18 21 0 0 0 0 0 0 0 0 0 0 0 0 0
1 1 0 0 0 1 1 1 1 0 0 0 0 0 0 0 0 0 0 0 0 0 0 0 0 0 0 0 0 0 0 0 0 0 0 0 0 0 0 0 47 10 0 0 0 0 0 0 0 0 0 0 0 0
0 0 0 1 1 1 1 1 1 0 0 0 0 0 0 0 0 0 0 0 0 0 0 0 0 0 0 0 0 0 0 0 0 0 0 0 0 0 0 0 0 28 0 0 0 0 0 0 0 0 0 0 0 0
1 1 0 1 1 2 1 1 1 0 0 0 0 0 0 0 0 0 0 0 0 0 0 0 0 0 0 0 0 0 0 0 0 0 0 0 0 0 0 0 0 4 3 16 0 0 0 0 0 0 0 2 2 2
0 1 1 1 1 1 1 2 1 0 0 0 0 0 0 0 0 0 0 0 0 0 0 0 0 0 0 0 0 0 0 0 0 0 0 0 0 0 0 0 0 0 0 7 0 0 0 0 1 0 0 0 0 10
0 0 1 1 2 2 2 2 0 0 0 0 0 0 0 0 0 0 0 0 0 0 0 0 0 0 0 0 0 0 0 0 0 0 0 0 0 0 0 0 0 0 10 21 28 61 91 76 39 13 16 2 0 0
0 0 4 2 4 2 2 0 0 0 0 0 0 0 0 0 0 0 0 0 0 0 0 0 0 0 0 0 0 0 0 0 0 0 0 0 0 0 0 0 3 1 1 18 65 130 78 18 0 25 21 6 2 1
0 0 5 6 3 2 0 0 0 0 0 0 0 16 0 0 2 0 0 0 0 0 0 0 0 0 0 0 0 0 0 0 0 0 0 0 0 0 0 0 0 1 27 52 37 30 48 54 60 31 25 14 7 1
0 0 4 13 2 1 1 0 0 0 0 11 22 6 0 0 0 0 0 0 0 0 0 0 0 0 0 0 0 0 0 0 0 0 0 0 0 0 0 0 15 19 21 16 28 16 48 74 63 15 4 0 0 0
0 0 0 21 3 6 0 0 0 0 0 28 35 7 0 0 0 0 0 0 0 0 0 0 0 0 0 0 0 0 0 0 0 0 0 0 0 0 0 2 14 15 7 2 1 11 12 26 6 0 0 0 0 0
0 1 0 31 6 5 2 0 0 0 1 6 6 12 0 0 0 0 0 0 0 0 0 0 0 0 0 0 0 0 0 0 0 0 0 0 0 0 0 13 13 7 4 0 0 0 2 5 1 0 0 0 0 0
8 1 22 3 2 3 0 0 0 0 0 8 7 0 0 0 0 0 0 0 0 0 0 0 0 0 0 0 0 0 0 0 0 0 0 0 0 0 0 1 0 2 0 0 0 0 0 0 0 0 0 0 0 0
19 47 2 0 6 0 0 0 1 0 0 0 0 0 0 0 0 0 0 0 0 0 0 0 0 0 0 0 0 0 0 0 0 0 0 0 0 0 0 0 0 0 0 0 0 0 2 1 1 0 0 0 0 0
15 1 0 0 0 0 0 0 0 0 0 0 0 0 0 0 0 0 0 0 0 0 2 0 0 0 0 0 0 0 0 0 0 0 0 0 0 0 0 0 0 0 0 0 0 0 0 0 0 0 0 0 0 0
5 3 3 3 2 0 1 0 0 0 0 0 0 0 0 0 0 0 0 0 0 0 0 0 0 0 0 0 0 0 0 0 0 0 0 0 0 0 0 0 0 0 0 0 0 0 0 0 1 0 0 0 0 0
5 1 2 0 0 0 0 0 2 0 0 0 0 0 0 0 0 0 0 0 0 0 0 0 0 0 0 0 0 0 0 0 0 0 0 0 0 0 0 0 0 0 0 0 0 0 3 5 3 0 0 0 0 0
0 0 0 0 0 0 0 0 0 0 0 0 0 0 0 0 0 0 0 0 0 0 0 0 0 0 0 0 0 0 0 0 0 0 0 0 0 0 0 0 0 0 0 0 0 2 7 10 6 0 0 0 0 6
0 0 0 0 0 1 0 0 0 0 0 0 0 0 0 0 0 0 0 0 0 0 0 0 0 0 0 0 0 0 0 0 0 0 0 0 0 0 0 0 0 0 6 10 2 4 15 1 0 16 23 28 30 43
0 0 1 1 0 0 0 0 0 0 0 0 0 0 0 0 0 0 0 0 0 0 1 4 5 6 0 0 0 0 0 0 0 0 0 0 0 0 0 3 2 4 15 3 1 1 20 27 30 11 2 7 13 19
0 0 0 0 0 0 0 0 0 0 0 0 0 0 0 0 0 0 0 0 0 0 0 0 0 0 0 0 0 0 0 0 0 0 0 0 0 0 4 4 0 4 3 8 3 0 4 8 15 10 2 2 2 1
0 0 0 0 0 0 0 0 0 0 0 0 0 0 0 0 0 0 0 0 0 0 0 0 0 0 0 0 0 0 0 0 0 3 21 21 8 0 0 4 11 13 0 8 23 24 33 21 10 9 16 21 1 19
0 0 0 0 0 0 0 0 0 0 0 0 0 0 0 0 0 0 0 0 0 0 0 0 0 0 0 0 0 0 0 0 0 1 3 1 3 2 8 13 21 11 0 16 18 18 39 60 45 27 32 26 20 15
0 0 0 0 0 0 0 0 0 0 0 0 0 0 0 0 0 0 0 0 0 0 0 0 0 0 0 0 0 0 0 0 0 0 2 5 7 15 14 15 16 17 18 15 21 0 0 15 25 26 27 23 16 6
0 0 0 0 0 0 0 0 0 0 0 0 0 0 0 0 0 0 0 0 0 0 0 0 0 0 0 0 0 0 0 0 0 0 13 18 24 8 0 0 0 3 4 1 1 0 0 0 2 0 0 0 0 0
0 0 0 0 0 0 0 0 0 0 0 0 0 0 0 0 0 0 0 0 0 0 0 0 0 0 0 0 0 0 0 0 0 0 8 14 26 26 3 0 2 17 13 17 27 11 0 0 0 0 0 0 0 0
0 0 0 0 0 0 0 0 0 0 0 0 0 0 0 0 0 0 0 0 0 0 0 0 0 0 0 0 0 0 0 0 0 1 3 13 21 5 0 0 0 1 6 14 21 23 16 0 0 0 0 0 0 0
0 0 0 0 0 0 0 0 0 0 0 0 0 0 0 0 0 0 0 0 0 0 0 0 0 0 4 5 6 8 2 3 7 22 35 35 15 0 0 0 0 0 0 0 0 6 11 5 0 0 2 5 5 20
0 0 0 0 0 1 0 0 3 29 20 27 15 4 0 0 0 0 0 0 0 0 0 0 0 0 1 4 14 13 3 14 21 14 16 20 1 0 0 0 0 0 0 0 0 2 1 3 7 11 8 18 24 33
CIN
0 -12 -2 -11 0 0 0 0 0 0 0 0 0 0 0 0 0 0 0 0 0 0 0 0 0 0 0 0 0 0 0 -15 0 0 0 0 0 0 0 0 -57 0 0 0 0 0 0 -300 -287 -122 -131 0 0 -501
-4 -8 -4 -10 0 0 0 0 0 0 0 0 0 0 0 0 0 0 0 0 0 0 0 0 0 0 0 0 0 0 0 0 0 0 0 0 -53 -2 -67 -35 0 -52 -129 -107 -123 -133 0 -5 0 0 0 0 0 -542
-2 -6 0 -19 0 0 0 0 0 0 0 0 0 0 0 0 0 0 0 0 0 0 0 0 0 0 0 0 0 0 0 0 0 0 0 0 -23 -111 -24 -2 0 -100 0 0 0 0 0 0 0 0 0 0 0 0
0 -6 -2 0 0 0 0 0 0 0 0 0 0 0 0 0 0 0 0 0 0 0 0 0 0 0 0 0 0 0 0 0 0 0 0 0 -17 -100 -45 -75 -31 -67 0 0 0 0 0 0 0 0 0 0 0 0
-2 -2 -6 0 0 0 0 0 0 0 0 0 0 0 0 0 0 0 0 0 0 0 0 0 0 0 0 0 0 0 0 0 0 0 0 0 0 -65 -89 -113 -55 -129 0 0 0 0 0 0 0 0 0 0 0 0
-1 -1 -1 -1 0 0 0 0 0 0 0 0 0 0 0 0 0 0 0 0 0 0 0 0 0 0 0 0 0 0 0 0 0 0 0 0 0 0 -1 -24 -81 -3 0 0 0 0 0 0 0 0 0 0 0 0
-1 -1 -1 0 0 0 0 0 0 0 0 0 0 0 0 0 0 0 0 0 0 0 0 0 0 0 0 0 0 0 0 0 0 0 0 0 0 0 0 0 -38 -51 0 0 0 0 0 0 0 0 0 0 0 0
0 -2 -2 0 0 0 0 0 0 0 0 0 0 0 0 0 0 0 0 0 0 0 0 0 0 0 0 0 0 0 0 0 0 0 0 0 0 0 0 0 0 -81 0 0 0 0 0 0 0 0 0 0 0 0
0 0 -2 0 0 0 0 0 0 0 0 0 0 0 0 0 0 0 0 0 0 0 0 0 0 0 0 0 0 0 0 0 0 0 0 0 0 0 0 0 0 -56 -27 -61 0 0 0 0 0 0 0 -83 -109 -42
0 -3 -4 0 0 0 0 0 0 0 0 0 0 0 0 0 0 0 0 0 0 0 0 0 0 0 0 0 0 0 0 0 0 0 0 0 0 0 0 0 0 0 0 -114 0 0 0 0 -4 0 -2 -9 0 -127
0 -8 -7 0 0 0 0 0 0 0 0 0 0 0 0 0 0 0 0 0 0 0 0 0 0 0 0 0 0 0 0 0 0 0 0 0 0 0 0 0 0 0 -39 -93 -81 -77 -87 -90 -85 -99 -95 -112 -31 0
0 0 -1 0 -23 0 0 0 0 0 0 0 0 0 0 0 0 0 0 0 0 0 0 0 0 0 0 0 0 0 0 0 0 0 0 0 0 0 0 0 -138 -47 -45 -66 -61 -49 -70 -44 0 -86 -92 -90 -42 -71
0 0 -1 -14 -21 0 0 0 0 0 0 0 0 -46 0 0 -41 0 0 0 0 0 0 0 0 0 0 0 0 0 0 0 0 0 0 0 0 0 0 0 0 -28 -99 -90 -67 -70 -62 -65 -77 -75 -80 -98 -112 -17
0 0 -27 -10 0 -1 -6 0 0 0 0 -55 -12 -17 0 -3 0 0 0 0 0 0 0 0 0 0 0 0 0 0 0 0 0 0 0 0 0 0 0 0 -77 -67 -91 -97 -75 -68 -51 -53 -64 -97 -105 0 0 0
0 0 0 -8 -15 0 0 0 0 0 0 -26 -39 -5 0 0 0 0 0 0 0 0 0 0 0 0 0 0 0 0 0 0 0 0 0 0 0 0 0 -15 -48 -58 -86 -95 -48 -54 -59 -63 -67 0 0 0 0 0
0 -3 0 -6 -5 -2 -15 0 0 0 -56 -63 -60 -73 0 0 0 0 0 0 0 0 0 0 0 0 0 0 0 0 0 0 0 0 0 0 0 0 0 -21 -17 -40 -49 0 0 0 -60 -69 -26 0 0 0 0 0
0 -1 -8 -38 -4 -15 0 0 0 0 0 -48 -66 0 0 0 0 0 0 0 0 0 0 0 0 0 0 0 0 0 0 0 0 0 0 0 0 0 0 -4 0 -3 0 0 0 0 0 -4 0 0 0 0 0 0
-2 -12 -1 -4 -8 -4 0 0 -1 0 0 0 0 0 0 0 0 0 0 0 0 0 0 0 0 0 0 0 0 0 0 0 0 0 0 0 0 0 0 0 0 0 0 0 0 0 -29 -21 -24 -20 0 0 0 0
-1 0 0 0 0 -2 0 0 0 0 0 0 0 0 0 0 0 0 0 0 0 0 -30 0 0 0 0 0 0 0 0 0 0 0 0 0 0 0 0 0 0 0 0 0 0 0 0 0 -16 0 0 0 0 0
-3 -1 -6 -26 -14 -3 -1 0 0 0 0 0 0 0 0 0 0 0 0 0 0 0 0 0 0 0 0 0 0 0 0 0 0 0 0 0 0 0 0 0 0 0 0 0 0 0 0 0 -28 0 -16 0 0 0
-1 0 -15 -1 0 0 0 0 -5 0 0 0 0 0 0 0 0 -1 0 0 0 0 0 0 0 0 0 0 0 0 0 0 0 0 0 0 0 0 0 0 0 0 0 0 -17 -24 -32 -24 -41 0 0 0 0 0
0 0 -10 0 0 0 0 0 0 0 0 0 0 0 0 0 0 0 0 0 0 0 0 0 0 0 0 0 0 0 0 0 0 0 0 0 0 0 0 0 0 0 0 0 0 -16 -22 -37 -53 -9 0 0 0 -63
0 0 0 0 0 -1 -1 0 0 0 -8 0 0 0 0 0 0 0 0 0 0 0 0 0 0 0 0 0 0 0 0 0 0 0 0 0 0 0 0 0 0 0 -37 -32 -56 -34 -29 -30 -8 -47 -48 -50 -47 -47
0 0 -36 -32 0 0 0 0 0 0 0 0 0 0 0 0 0 0 0 0 0 0 -39 -91 -93 -63 0 0 0 0 0 0 0 0 0 0 0 0 -39 -66 -60 -48 -49 -60 -58 -19 -47 -53 -53 -59 -71 -57 -65 -56
0 0 0 0 0 0 0 0 0 0 0 0 0 0 0 0 0 0 0 0 0 0 0 0 0 0 0 0 0 0 0 0 0 0 0 0 -4 -18 -66 -72 -46 -44 -49 -36 -29 -3 -49 -63 -50 -32 -36 -45 -38 -24
0 0 0 0 0 0 0 0 0 0 0 0 0 0 0 0 0 0 0 0 0 0 0 0 0 0 0 0 0 0 0 0 0 -36 -25 -42 -49 -28 0 -21 -17 -24 -35 -85 -56 -28 -36 -37 -24 -26 -23 -28 -11 -31
0 0 0 0 0 0 0 0 0 0 0 0 0 0 0 0 0 0 0 0 0 0 0 0 0 0 0 0 0 0 0 0 0 -20 -72 -64 -71 -76 -58 -33 -17 -34 0 -75 -58 -38 -25 -36 -30 -28 -25 -25 -22 -24
0 0 0 0 0 0 0 0 0 0 0 0 0 0 0 0 0 0 0 0 0 0 0 0 0 0 0 0 0 0 0 0 0 0 -102 -105 -102 -84 -73 -79 -74 -83 -86 -81 -66 0 -4 -44 -37 -27 -25 -19 -11 -32
0 0 0 0 0 0 0 0 0 0 0 0 0 0 0 0 0 0 0 0 0 0 0 0 0 0 0 0 0 0 0 0 0 -3 -20 -22 -17 -23 -61 0 0 -65 -63 -9 -7 0 0 0 -40 0 0 0 0 0
0 0 0 0 0 0 0 0 0 0 0 0 0 0 0 0 0 0 0 0 0 0 0 0 0 0 0 0 0 -13 0 0 0 -3 -38 -35 -26 -47 -52 -57 -50 -65 -78 -82 -64 -57 0 0 0 0 0 0 0 0
0 0 0 0 0 0 0 0 0 0 0 0 0 0 0 0 0 0 0 0 0 0 0 0 0 0 0 0 0 0 0 0 0 -56 -70 -85 -90 -94 0 0 0 -36 -104 -83 -66 -61 -58 -6 0 0 0 0 0 0
0 0 0 0 0 0 0 0 0 0 0 0 0 0 0 0 0 0 0 0 0 0 0 0 0 0 -85 -100 -94 -90 -66 -84 -64 -72 -69 -65 -57 0 0 0 0 0 0 0 -10 -75 -58 -70 -6 -1 -27 -31 -8 -28
0 0 0 0 0 -2 -1 0 -5 -7 -20 -18 -25 -37 -9 0 0 0 0 0 0 0 -15 0 -16 -18 -90 -93 -91 -93 -108 -99 -107 -120 -125 -114 -95 0 0 0 0 0 0 0 0 -113 -107 -100 -93 -82 -71 -54 -45 -40
Wind_Speed
14 8 4 3 7 8 9 7 6 4 5 13 20 24 23 22 22 21 24 20 19 22 27 22 20 20 19 17 16 19 18 19 20 21 22 22 23 23 24 21 23 24 26 27 27 30 33 28 24 27 27 27 30 31
18 10 6 4 6 8 9 8 6 5 9 5 20 23 23 22 21 20 22 19 21 21 24 24 30 30 26 24 18 18 17 19 19 19 19 18 20 19 20 23 19 21 19 21 22 22 21 20 19 20 23 27 29 31
22 12 7 5 6 8 9 7 6 5 3 7 18 23 22 22 21 20 23 22 20 23 27 24 25 20 18 18 17 19 19 19 19 18 18 19 19 17 18 18 17 16 16 17 18 19 20 18 20 23 27 30 31 31
23 16 8 6 5 8 10 9 5 3 5 9 16 22 22 23 22 21 23 21 20 20 22 20 19 21 19 14 16 18 17 17 18 19 20 19 19 16 17 15 16 16 17 18 20 21 20 20 22 27 29 29 29 30
24 20 11 7 5 8 10 9 6 3 2 8 14 19 23 23 23 24 27 24 20 18 20 23 23 16 17 13 13 14 15 17 17 18 18 19 18 16 18 18 19 17 18 21 23 22 22 24 25 28 28 29 31 33
24 22 16 9 6 7 9 9 6 5 4 8 14 20 22 21 22 21 22 20 22 17 19 19 18 17 15 11 13 15 14 15 15 14 15 16 16 17 19 21 18 18 18 19 22 22 24 28 28 25 26 28 31 33
25 23 18 11 6 7 9 9 7 7 7 8 14 19 22 21 21 22 20 17 14 16 18 20 17 15 15 13 15 14 13 13 13 14 14 14 14 16 19 23 18 16 18 20 21 23 26 25 26 25 27 30 31 30
26 23 20 11 4 6 8 10 7 9 10 12 14 19 22 24 25 25 22 27 20 19 17 17 16 13 13 11 12 13 12 12 15 14 15 15 15 17 20 19 16 16 18 21 22 19 22 24 26 25 25 26 27 27
26 24 20 12 5 7 8 9 8 9 10 13 15 17 19 19 20 20 15 10 14 18 18 16 14 10 13 11 11 12 12 11 15 15 16 16 17 17 16 21 21 19 18 20 21 23 23 23 23 24 23 21 22 22
25 24 19 11 5 7 10 8 10 8 9 11 14 14 21 19 18 12 16 16 19 20 20 20 15 12 11 11 11 11 12 12 12 15 16 16 16 18 21 26 26 22 21 20 22 22 22 22 19 19 20 20 19 17
23 22 17 9 7 8 9 9 7 5 10 15 15 16 17 12 16 19 22 21 18 21 20 20 15 12 12 10 9 12 12 13 12 14 16 16 17 17 21 19 17 14 16 15 17 19 19 18 17 18 18 18 18 17
22 21 14 8 8 10 11 10 9 13 17 15 15 14 13 16 19 21 22 21 21 21 18 17 16 14 12 11 11 12 12 13 12 16 16 17 16 17 19 18 18 18 17 17 15 16 16 18 17 16 15 16 15 15
21 20 16 10 11 11 11 10 7 12 14 14 17 16 17 18 24 24 24 23 21 18 17 16 14 11 11 12 12 12 13 13 15 15 18 18 16 17 19 19 18 17 16 16 16 14 16 17 16 15 14 13 13 14
23 21 19 12 14 13 13 10 8 16 17 19 20 23 23 24 26 24 26 22 18 17 14 15 13 12 12 11 12 13 13 13 15 16 17 16 17 17 18 17 16 16 16 16 15 17 15 16 15 14 14 14 15 16
23 23 22 15 15 17 16 13 11 16 19 20 20 25 27 25 22 23 25 21 16 15 12 12 12 12 10 11 13 12 12 12 13 14 14 15 16 17 18 17 15 16 17 17 16 18 18 15 14 14 14 14 15 17
25 25 28 19 17 18 17 14 16 19 20 21 22 24 23 23 23 23 23 22 18 14 13 11 11 11 12 10 10 9 10 12 13 14 14 13 12 13 15 18 17 15 14 15 15 18 19 16 13 13 13 14 16 17
33 31 27 22 20 19 18 19 20 22 25 23 23 24 25 25 24 20 18 20 17 16 14 12 12 12 10 11 9 10 11 14 12 12 12 11 10 12 16 16 16 16 17 17 18 18 16 12 11 12 14 15 16 17
40 34 25 27 31 27 23 21 24 23 24 24 23 22 21 20 18 16 19 20 16 15 15 14 11 12 10 10 10 11 13 11 11 11 11 11 14 15 15 16 17 18 19 18 17 17 14 12 11 11 12 13 15 16
55 45 28 41 36 28 26 26 22 23 26 21 23 22 20 16 15 15 11 10 9 7 7 13 13 12 10 12 10 11 12 13 10 10 14 14 10 13 14 16 18 20 22 20 17 16 14 13 12 11 11 12 13 14
36 39 38 33 28 27 24 25 23 24 23 23 21 20 17 12 11 8 7 9 10 13 14 15 13 11 12 13 12 11 11 11 12 12 17 20 10 19 18 18 21 22 22 18 17 15 13 13 12 10 11 12 12 13
30 28 28 36 30 20 24 26 23 25 23 20 21 19 13 12 10 9 10 12 11 13 11 10 9 9 9 8 10 11 12 13 15 18 20 22 13 13 14 16 20 22 21 18 17 16 13 11 11 11 11 10 10 12
29 28 34 31 26 24 22 20 22 23 23 19 15 13 12 12 12 11 12 9 10 11 11 10 8 8 9 11 12 13 14 15 17 19 19 18 19 14 15 18 21 22 20 18 15 15 14 10 10 10 11 11 10 11
25 27 25 23 23 18 21 19 19 18 18 16 15 14 14 15 15 14 11 12 11 11 11 11 11 12 13 14 14 15 16 16 19 20 20 20 18 15 15 17 16 17 15 14 14 16 15 12 9 9 13 12 11 16
28 27 27 25 20 23 21 20 17 16 16 15 15 16 17 17 16 13 12 12 12 13 12 12 12 13 15 17 17 18 19 19 22 23 20 18 20 20 16 17 16 14 12 14 17 12 9 11 15 17 8 18 19 19
23 20 20 21 20 21 20 18 17 15 15 15 15 15 16 16 14 12 11 12 12 12 12 14 15 16 19 21 21 19 18 20 21 21 17 13 16 18 17 15 13 11 10 10 13 7 11 12 14 17 21 18 11 20
20 19 20 20 21 20 19 19 18 18 16 15 14 15 14 11 12 13 12 11 11 11 13 16 18 21 22 20 21 21 20 15 15 15 14 12 12 12 11 12 14 15 14 21 18 14 12 12 15 16 22 14 11 13
18 18 18 18 20 20 19 18 19 16 15 14 14 10 11 13 14 14 16 9 13 14 15 17 19 20 22 22 19 15 13 14 15 15 13 15 18 15 5 15 17 15 12 13 16 22 25 26 8 12 15 15 14 15
17 15 17 18 17 18 20 17 15 13 12 13 10 13 14 13 15 15 13 13 13 16 20 21 21 20 17 13 14 12 11 13 15 16 16 17 17 18 17 17 19 21 21 22 13 18 16 5 4 11 18 20 23 20
15 13 17 12 14 12 11 13 12 11 13 13 12 16 16 17 15 14 14 16 19 21 22 21 19 9 8 9 17 19 20 18 17 16 16 17 18 17 20 21 19 12 6 6 7 9 16 13 12 14 14 13 15 16
11 11 15 12 11 11 11 11 12 15 16 16 17 18 16 18 19 20 18 19 19 19 16 14 13 13 14 19 20 20 19 16 14 10 21 21 23 25 26 26 25 21 9 5 4 7 9 8 10 13 13 12 11 11
13 11 10 10 11 12 14 17 17 17 17 17 16 16 15 16 17 18 14 17 16 16 16 13 11 14 16 18 15 12 13 10 9 11 9 14 26 25 24 23 21 17 11 5 3 3 4 6 8 12 17 16 16 15
13 13 15 16 16 14 14 12 12 11 11 14 14 13 12 12 11 11 16 18 20 19 15 15 15 15 14 12 20 20 9 19 21 22 24 26 27 24 24 24 25 24 23 19 11 8 8 9 11 11 5 10 10 13
15 15 16 16 15 15 14 13 13 13 14 15 13 10 10 12 12 13 16 17 16 14 13 12 10 14 18 18 19 24 24 23 20 23 9 0 4 12 19 23 27 27 25 22 20 18 18 16 15 15 15 13 15 24
Wind_Direction
331 321 297 268 203 196 188 180 169 181 295 301 289 271 275 277 283 283 268 272 280 276 261 272 276 273 280 290 290 285 287 297 296 292 291 292 290 290 288 293 293 289 285 280 280 276 275 304 299 288 297 304 305 307
331 322 306 279 212 198 190 183 175 165 289 308 286 275 275 278 282 285 267 277 280 280 274 282 262 252 263 264 286 295 296 299 303 302 304 302 298 301 294 284 300 292 298 289 287 286 303 307 314 313 308 301 305 307
328 325 311 292 223 199 193 190 189 178 265 298 285 277 278 275 279 278 264 270 280 277 270 274 265 278 288 285 291 295 302 305 306 314 307 301 294 303 297 295 300 300 307 302 297 307 306 307 314 315 310 302 303 304
327 327 315 302 226 203 193 191 208 225 276 288 289 278 273 269 272 274 263 267 273 279 268 272 284 269 281 296 298 299 309 313 316 310 301 297 293 302 296 304 303 300 300 298 299 306 311 315 313 312 311 311 310 307
326 324 319 294 250 201 188 192 218 240 243 284 289 281 269 271 269 269 258 260 266 274 270 261 271 279 279 306 314 316 318 315 311 307 303 294 295 298 296 296 296 303 299 300 299 305 311 313 315 315 314 314 313 310
322 323 318 305 254 203 196 190 205 251 263 280 287 277 272 276 268 268 259 263 259 275 275 265 278 276 289 318 323 327 328 325 323 317 311 306 307 295 292 292 304 308 309 309 306 310 308 308 314 319 320 319 319 315
317 318 317 310 257 217 205 191 199 253 265 284 284 278 268 274 267 254 261 267 268 271 272 270 274 284 288 316 325 342 337 346 340 329 320 319 311 308 296 293 305 305 310 311 311 311 309 313 316 321 319 318 322 328
312 312 311 305 252 212 199 185 201 250 262 281 287 275 271 266 265 256 260 245 255 261 272 276 282 287 297 323 338 333 23 359 338 329 322 315 315 311 299 301 305 310 314 315 317 325 320 320 320 322 331 327 323 335
308 305 302 296 245 206 188 185 223 243 259 275 283 285 274 270 257 254 269 268 255 260 266 275 277 291 295 319 338 354 5 13 332 330 318 318 311 310 308 297 300 308 317 322 324 325 326 325 326 327 332 338 337 344
303 300 296 287 221 179 167 187 224 236 259 273 278 277 256 262 260 250 261 262 256 256 260 261 274 287 297 306 332 348 359 12 2 334 325 313 316 311 306 290 285 292 302 315 320 326 332 339 350 348 347 347 352 0
300 295 291 271 214 187 173 169 198 207 257 262 261 264 267 275 251 247 247 251 255 256 256 256 262 281 291 309 333 335 352 357 2 339 325 318 309 315 308 310 317 332 327 341 345 348 358 6 5 1 6 8 10 18
292 287 279 251 215 187 174 167 175 242 246 252 262 268 263 254 249 244 244 251 253 253 257 248 251 266 283 307 333 334 344 348 355 337 320 316 312 319 319 324 328 337 342 343 356 357 3 4 14 21 11 5 352 8
281 279 265 231 210 195 182 173 185 240 245 255 249 252 253 250 240 240 237 241 249 254 249 244 242 264 282 305 323 337 339 339 337 331 314 308 316 320 326 328 332 341 349 353 353 7 13 22 20 16 13 2 353 344
267 266 259 221 207 198 193 188 198 228 239 242 237 238 241 238 240 242 236 244 255 257 242 233 238 266 280 310 328 333 343 342 333 321 315 322 318 326 329 334 339 340 344 350 350 338 0 7 9 10 4 359 352 343
257 251 249 210 202 196 193 204 222 233 236 233 244 236 236 241 248 243 237 242 252 245 231 230 251 266 297 322 325 340 347 345 336 329 329 333 335 335 336 340 333 331 329 336 323 314 325 349 2 2 355 351 348 348
238 238 231 197 182 181 194 209 230 235 237 236 240 234 236 238 239 235 229 232 237 230 231 247 262 282 300 320 336 345 344 340 340 334 342 354 6 13 13 328 337 339 324 313 331 332 327 334 355 9 7 354 347 346
217 217 207 166 166 177 193 212 213 223 223 228 228 229 225 225 224 227 231 225 222 226 234 255 281 290 326 330 334 337 331 325 340 351 2 14 15 354 316 331 306 304 327 337 342 347 352 4 14 15 7 356 350 351
195 192 164 166 182 190 201 207 219 218 214 221 221 216 217 220 218 219 214 212 224 237 247 262 296 305 329 342 340 325 321 342 356 2 350 344 322 314 325 310 332 346 352 350 354 358 12 31 31 26 27 20 10 8
157 164 157 173 181 187 193 203 208 205 206 211 207 208 205 210 211 210 213 224 240 258 273 280 305 319 330 314 329 330 331 324 4 352 318 311 3 335 326 326 327 332 337 343 348 359 8 13 32 48 35 27 25 22
157 162 169 179 183 181 188 193 199 198 197 193 195 190 194 204 210 219 230 246 257 263 277 289 313 328 306 302 314 329 339 3 3 340 298 277 358 306 311 316 319 330 341 350 349 357 2 357 9 30 34 21 21 21
157 168 171 173 178 189 180 180 185 184 189 187 188 196 205 211 219 232 247 254 269 276 304 318 325 317 316 344 340 3 355 359 323 299 291 290 344 340 338 335 328 331 332 334 338 340 350 1 8 24 24 9 12 22
162 166 165 176 177 177 178 188 182 183 186 192 199 207 215 218 224 236 242 267 281 286 295 303 325 324 321 317 324 346 355 337 326 327 328 328 323 342 338 327 317 322 323 323 335 336 328 2 19 23 22 20 13 4
162 169 172 177 177 184 183 188 182 186 188 196 202 209 213 214 217 223 250 236 275 282 293 308 307 309 323 323 328 332 337 337 332 334 334 331 334 341 338 334 337 331 345 342 337 311 310 318 344 343 287 289 202 205
162 166 169 173 178 172 179 179 186 188 191 198 205 206 207 208 213 234 260 265 269 277 321 327 331 329 329 328 327 321 320 331 328 325 330 330 319 322 337 336 332 337 346 331 299 304 312 302 276 278 31 209 210 206
160 168 175 177 183 179 183 189 193 197 196 194 196 200 202 210 229 260 335 37 2 1 345 329 332 331 324 316 312 327 333 331 333 333 341 352 335 329 336 344 337 13 25 318 265 332 296 308 307 297 266 225 168 210
166 174 179 181 182 185 188 187 189 186 190 197 201 202 217 269 302 335 21 10 6 15 343 333 323 305 304 333 312 311 331 11 8 356 6 27 27 20 328 345 308 277 202 163 242 294 314 342 323 328 289 348 11 355
162 167 173 180 180 180 182 182 181 188 195 208 216 270 333 347 1 354 191 141 331 338 347 343 327 326 305 304 325 8 30 43 41 31 17 104 136 132 172 252 266 302 1 336 314 282 240 248 2 343 336 341 345 341
164 165 163 168 170 174 176 188 200 217 231 245 295 13 342 292 273 32 43 3 3 336 288 272 259 247 226 345 3 24 53 83 191 202 199 200 191 196 207 212 220 233 239 244 347 319 322 74 48 341 322 317 306 320
170 182 173 177 184 198 207 214 238 268 281 311 305 236 234 316 10 18 356 318 299 304 276 261 250 165 114 115 177 192 179 185 210 221 240 267 287 318 327 324 333 358 47 46 24 9 339 344 342 333 332 335 331 333
186 197 186 201 211 229 251 269 290 299 318 308 296 294 283 251 256 260 241 245 240 244 239 209 236 232 217 172 167 181 163 152 150 277 292 295 297 285 284 291 300 315 2 21 30 8 4 5 353 348 348 349 346 339
217 233 242 248 247 242 251 274 273 249 244 225 236 228 228 239 282 338 278 244 228 208 194 203 209 172 147 73 44 347 323 49 54 41 50 5 292 300 314 322 329 346 1 7 6 345 335 334 330 327 328 327 324 322
220 222 210 202 201 224 229 235 229 240 229 182 175 179 185 185 187 186 166 157 135 136 158 163 117 84 88 50 320 329 9 249 246 249 262 283 290 321 330 332 332 331 331 334 331 320 316 314 314 319 286 313 334 325
193 193 185 177 181 182 192 189 175 171 165 163 166 178 182 171 167 169 151 136 132 137 152 148 131 34 358 347 329 297 307 296 265 258 229 251 17 356 343 340 334 332 332 331 330 328 325 324 320 317 317 313 314 312